San Antonio, TX

3:18 PM CDT on May 28, 2017 (GMT -0500)
San Antonio International

Weather History for KSAT - May, 2014

Change the Weather History Date:

Thursday, May 29, 2014

  Actual Average Record
Temperature  
Mean Temperature 78 °F 80 °F  
Max Temperature 91 °F 90 °F 102 °F (1927)
Min Temperature 65 °F 70 °F 57 °F (1888)
Degree Days  
Heating Degree Days 0 0  
Month to date heating degree days 4 0  
Since 1 July heating degree days 1566 1494  
Cooling Degree Days 13 15  
Month to date cooling degree days 306 340  
Year to date cooling degree days 668 599  
Growing Degree Days 28 (Base 50)    
Moisture  
Dew Point 62 °F    
Average Humidity 63    
Maximum Humidity 87    
Minimum Humidity 38    
Precipitation  
Precipitation 0.00 in 0.15 in 3.54 in (1987)
Month to date precipitation 4.97 3.70  
Year to date precipitation 7.36 11.66  
Snow  
Snow 0.00 in - - ()
Month to date snowfall 0.0  
Since 1 July snowfall 0.4  
Snow Depth 0.00 in    
Sea Level Pressure  
Sea Level Pressure 29.83 in    
Wind  
Wind Speed 5 mph (North)    
Max Wind Speed 14 mph    
Max Gust Speed 17 mph    
Visibility 10 miles    
Events      
T = Trace of Precipitation, MM = Missing Value Source: NWS Daily Summary

Daily Weather History Graph

Daily Weather History Graph

Search for Another Location

Airport or City:

Trip Planner

Search our weather history database for the weather conditions in past years. The results will help you decide how hot, cold, wet, or windy it might be!

Date:

Astronomy

May. 29, 2014 Rise Set
Actual Time 6:35 AM CDT 8:27 PM CDT
Civil Twilight 6:08 AM CDT 8:54 PM CDT
Nautical Twilight 5:36 AM CDT 9:26 PM CDT
Astronomical Twilight 5:01 AM CDT 10:01 PM CDT
Moon 7:25 AM CDT (5/29) 9:23 PM CDT (5/29)
Length of Visible Light 14h 46m
Length of Day
13h 52m
New Moon, 1% of the Moon is Illuminated
May 29
New Moon
Jun 5
First Quarter
Jun 12
Full
Jun 19
Last Quarter
Jun 27
New

Hourly Weather History & Observations

Time (CDT) Temp. Heat Index Dew Point Humidity Pressure Visibility Wind Dir Wind Speed Gust Speed Precip Events Conditions
12:51 AM 70.0 °F - 63.0 °F 78% 29.85 in 10.0 mi NW 4.6 mph - N/A   Scattered Clouds
1:51 AM 66.9 °F - 62.1 °F 84% 29.85 in 10.0 mi NW 6.9 mph - N/A   Scattered Clouds
2:51 AM 66.9 °F - 61.0 °F 81% 29.84 in 10.0 mi WNW 5.8 mph - N/A   Partly Cloudy
3:51 AM 66.0 °F - 61.0 °F 84% 29.84 in 10.0 mi NW 4.6 mph - N/A   Partly Cloudy
4:51 AM 66.0 °F - 61.0 °F 84% 29.84 in 10.0 mi Calm Calm - N/A   Partly Cloudy
5:51 AM 64.9 °F - 61.0 °F 87% 29.84 in 10.0 mi NW 5.8 mph - N/A   Partly Cloudy
6:51 AM 66.0 °F - 61.0 °F 84% 29.85 in 10.0 mi NW 4.6 mph - N/A   Scattered Clouds
7:51 AM 70.0 °F - 63.0 °F 78% 29.87 in 10.0 mi WNW 5.8 mph - N/A   Scattered Clouds
8:51 AM 75.0 °F - 64.9 °F 71% 29.88 in 10.0 mi NW 4.6 mph - N/A   Scattered Clouds
9:51 AM 80.1 °F 81.5 °F 63.0 °F 56% 29.88 in 10.0 mi NW 3.5 mph - N/A   Scattered Clouds
10:51 AM 81.0 °F 81.9 °F 62.1 °F 52% 29.87 in 10.0 mi Variable 4.6 mph - N/A   Mostly Cloudy
11:51 AM 84.9 °F 85.4 °F 62.1 °F 46% 29.86 in 10.0 mi NE 3.5 mph - N/A   Mostly Cloudy
12:51 PM 87.1 °F 87.5 °F 62.1 °F 43% 29.85 in 10.0 mi North 5.8 mph - N/A   Mostly Cloudy
1:51 PM 89.1 °F 89.0 °F 61.0 °F 39% 29.84 in 10.0 mi NE 8.1 mph - N/A   Mostly Cloudy
2:51 PM 87.1 °F 86.5 °F 59.0 °F 39% 29.83 in 10.0 mi East 5.8 mph - N/A   Mostly Cloudy
3:51 PM 88.0 °F 87.6 °F 60.1 °F 39% 29.81 in 10.0 mi NNE 9.2 mph - N/A   Mostly Cloudy
4:51 PM 89.1 °F 89.0 °F 61.0 °F 39% 29.80 in 10.0 mi NE 8.1 mph - N/A   Mostly Cloudy
5:51 PM 89.1 °F 89.0 °F 61.0 °F 39% 29.78 in 10.0 mi East 5.8 mph - N/A   Mostly Cloudy
6:51 PM 87.1 °F 87.8 °F 63.0 °F 44% 29.77 in 10.0 mi East 8.1 mph - N/A   Scattered Clouds
7:51 PM 84.0 °F 85.4 °F 64.0 °F 51% 29.78 in 10.0 mi East 6.9 mph - N/A   Scattered Clouds
8:51 PM 81.0 °F 82.2 °F 63.0 °F 54% 29.79 in 10.0 mi East 3.5 mph - N/A   Scattered Clouds
9:51 PM 78.1 °F - 64.9 °F 64% 29.80 in 10.0 mi East 3.5 mph - N/A   Scattered Clouds
10:51 PM 77.0 °F - 64.9 °F 66% 29.83 in 10.0 mi Calm Calm - N/A   Partly Cloudy
11:51 PM 78.1 °F - 64.9 °F 64% 29.83 in 10.0 mi Calm Calm - N/A   Scattered Clouds